| time (UTC) | temp F | wind direction | speed knots | gust knots | rain 1hr in | rain 24hr in | rain mn in | humidity % | barometer mb |
| 20260505052338 | 62 | 229 | 3.5 | 8.7 | 0.00 | 0.00 | 0.00 | 74 | 1007.5 |
| 20260505051518 | 61 | 187 | 4.3 | 0.0 | 0.00 | 0.00 | 0.00 | 74 | 1007.4 |
| 20260505051356 | 62 | 183 | 3.5 | 8.7 | 0.00 | 0.00 | 0.00 | 74 | 1007.5 |
| 20260505050352 | 62 | 206 | 3.5 | 8.7 | 0.00 | 0.00 | 0.00 | 74 | 1007.5 |
| 20260505041510 | 61 | 203 | 3.5 | 0.0 | 0.00 | 0.00 | 0.00 | 72 | 1007.6 |
| 20260505041344 | 62 | 203 | 2.6 | 7.8 | 0.00 | 0.00 | 0.00 | 72 | 1007.7 |
| 20260505040356 | 62 | 205 | 4.3 | 8.7 | 0.00 | 0.00 | 0.00 | 72 | 1007.7 |
| 20260505040054 | 61 | 183 | 3.5 | 0.0 | 0.00 | 0.00 | 0.00 | 72 | 1007.6 |
| 20260505035353 | 62 | 187 | 2.6 | 7.8 | 0.00 | 0.00 | 0.00 | 72 | 1007.4 |
| 20260505034518 | 61 | 193 | 3.5 | 0.0 | 0.00 | 0.00 | 0.00 | 72 | 1007.3 |
| 20260505034417 | 61 | 182 | 3.5 | 6.1 | 0.00 | 0.00 | 0.00 | 72 | 1007.4 |
| 20260505033418 | 62 | 175 | 2.6 | 5.2 | 0.00 | 0.00 | 0.00 | 71 | 1007.3 |
| 20260505033105 | 61 | 182 | 2.6 | 0.0 | 0.00 | 0.00 | 0.00 | 71 | 1007.2 |
| 20260505032349 | 62 | 174 | 2.6 | 5.2 | 0.00 | 0.00 | 0.00 | 71 | 1007.7 |
| 20260505031530 | 62 | 170 | 2.6 | 0.0 | 0.00 | 0.00 | 0.00 | 70 | 1007.6 |
| 20260505031348 | 62 | 177 | 2.6 | 6.1 | 0.00 | 0.00 | 0.00 | 70 | 1007.7 |
| 20260505030342 | 62 | 182 | 3.5 | 5.2 | 0.00 | 0.00 | 0.00 | 70 | 1007.7 |
| 20260505030036 | 62 | 188 | 2.6 | 0.0 | 0.00 | 0.00 | 0.00 | 70 | 1007.7 |
| 20260505025355 | 62 | 178 | 2.6 | 6.1 | 0.00 | 0.00 | 0.00 | 70 | 1007.7 |
| 20260505024507 | 62 | 181 | 2.6 | 0.0 | 0.00 | 0.00 | 0.00 | 70 | 1007.7 |
| 20260505024349 | 62 | 184 | 2.6 | 7.8 | 0.00 | 0.00 | 0.00 | 70 | 1007.7 |
| 20260505023341 | 62 | 180 | 3.5 | 5.2 | 0.00 | 0.00 | 0.00 | 69 | 1007.8 |
| 20260505023005 | 62 | 187 | 2.6 | 0.0 | 0.00 | 0.00 | 0.00 | 69 | 1007.8 |
| 20260505022335 | 63 | 188 | 3.5 | 5.2 | 0.00 | 0.00 | 0.00 | 69 | 1007.8 |
| 20260505021555 | 62 | 186 | 2.6 | 0.0 | 0.00 | 0.00 | 0.00 | 68 | 1007.7 |
| 20260505021354 | 63 | 182 | 2.6 | 4.3 | 0.00 | 0.00 | 0.00 | 67 | 1007.8 |
| 20260505020346 | 63 | 176 | 1.7 | 6.1 | 0.00 | 0.00 | 0.00 | 66 | 1007.8 |
| 20260505020056 | 62 | 180 | 1.7 | 0.0 | 0.00 | 0.00 | 0.00 | 66 | 1007.7 |
| 20260505015341 | 63 | 175 | 1.7 | 4.3 | 0.00 | 0.00 | 0.00 | 63 | 1007.8 |
| 20260505014532 | 63 | 177 | 1.7 | 0.0 | 0.00 | 0.00 | 0.00 | 62 | 1007.7 |
| 20260505014401 | 63 | 185 | 0.9 | 4.3 | 0.00 | 0.00 | 0.00 | 61 | 1007.8 |
| 20260505013351 | 64 | 187 | 1.7 | 3.5 | 0.00 | 0.00 | 0.00 | 59 | 1007.7 |
| 20260505013005 | 63 | 182 | 1.7 | 0.0 | 0.00 | 0.00 | 0.00 | 59 | 1007.7 |
| 20260505012346 | 64 | 185 | 1.7 | 3.5 | 0.00 | 0.00 | 0.00 | 58 | 1007.6 |
| 20260505011557 | 64 | 174 | 1.7 | 0.0 | 0.00 | 0.00 | 0.00 | 57 | 1007.6 |
| 20260505011346 | 64 | 187 | 0.9 | 3.5 | 0.00 | 0.00 | 0.00 | 57 | 1007.6 |
| 20260505010403 | 64 | 187 | 1.7 | 4.3 | 0.00 | 0.00 | 0.00 | 55 | 1007.3 |
| 20260505010034 | 64 | 186 | 1.7 | 0.0 | 0.00 | 0.00 | 0.00 | 55 | 1007.2 |
| 20260505005337 | 65 | 179 | 1.7 | 2.6 | 0.00 | 0.00 | 0.00 | 54 | 1007.3 |
| 20260505004503 | 65 | 178 | 0.9 | 0.0 | 0.00 | 0.00 | 0.00 | 53 | 1007.2 |
| 20260505004357 | 65 | 178 | 0.9 | 3.5 | 0.00 | 0.00 | 0.00 | 53 | 1007.3 |
| 20260505003352 | 66 | 180 | 1.7 | 2.6 | 0.00 | 0.00 | 0.00 | 52 | 1007.2 |
| 20260505003001 | 66 | 179 | 1.7 | 0.0 | 0.00 | 0.00 | 0.00 | 51 | 1007.1 |
| 20260505002350 | 67 | 182 | 0.9 | 3.5 | 0.00 | 0.00 | 0.00 | 50 | 1007.1 |
| 20260505001543 | 67 | 183 | 1.7 | 0.0 | 0.00 | 0.00 | 0.00 | 49 | 1007.0 |
| 20260505001416 | 67 | 185 | 0.9 | 4.3 | 0.00 | 0.00 | 0.00 | 49 | 1007.1 |
| 20260505000351 | 68 | 179 | 2.6 | 5.2 | 0.00 | 0.00 | 0.00 | 48 | 1006.8 |
| 20260505000016 | 67 | 191 | 2.6 | 0.0 | 0.00 | 0.00 | 0.00 | 48 | 1006.7 |
| 20260504235346 | 68 | 183 | 1.7 | 4.3 | 0.00 | 0.00 | 0.00 | 47 | 1006.7 |
| 20260504234616 | 68 | 177 | 2.6 | 0.0 | 0.00 | 0.00 | 0.00 | 47 | 1006.7 |
| 20260504234348 | 69 | 184 | 2.6 | 5.2 | 0.00 | 0.00 | 0.00 | 46 | 1006.7 |
| 20260504233343 | 69 | 183 | 1.7 | 3.5 | 0.00 | 0.00 | 0.00 | 46 | 1006.7 |
| 20260504233052 | 69 | 188 | 1.7 | 0.0 | 0.00 | 0.00 | 0.00 | 45 | 1006.7 |
| 20260504232356 | 70 | 192 | 2.6 | 5.2 | 0.00 | 0.00 | 0.00 | 44 | 1006.8 |
| 20260504231539 | 70 | 181 | 2.6 | 0.0 | 0.00 | 0.00 | 0.00 | 44 | 1006.7 |
| 20260504231336 | 71 | 193 | 2.6 | 5.2 | 0.00 | 0.00 | 0.00 | 43 | 1006.8 |
| 20260504230355 | 71 | 181 | 2.6 | 6.1 | 0.00 | 0.00 | 0.00 | 43 | 1006.7 |
| 20260504230019 | 70 | 180 | 2.6 | 0.0 | 0.00 | 0.00 | 0.00 | 42 | 1006.7 |
| 20260504225352 | 71 | 209 | 3.5 | 8.7 | 0.00 | 0.00 | 0.00 | 42 | 1006.7 |
| 20260504224606 | 71 | 201 | 3.5 | 0.0 | 0.00 | 0.00 | 0.00 | 42 | 1006.7 |
| 20260504224352 | 71 | 190 | 3.5 | 6.1 | 0.00 | 0.00 | 0.00 | 41 | 1006.7 |
| 20260504223351 | 72 | 187 | 3.5 | 8.7 | 0.00 | 0.00 | 0.00 | 42 | 1006.7 |
| 20260504223056 | 71 | 185 | 3.5 | 0.0 | 0.00 | 0.00 | 0.00 | 41 | 1006.7 |
| 20260504222346 | 72 | 220 | 3.5 | 7.8 | 0.00 | 0.00 | 0.00 | 40 | 1006.8 |
| 20260504221534 | 72 | 194 | 3.5 | 0.0 | 0.00 | 0.00 | 0.00 | 40 | 1006.7 |
| 20260504221347 | 72 | 183 | 2.6 | 9.6 | 0.00 | 0.00 | 0.00 | 40 | 1006.8 |
| 20260504220402 | 73 | 183 | 4.3 | 8.7 | 0.00 | 0.00 | 0.00 | 40 | 1006.8 |
| 20260504215407 | 73 | 179 | 4.3 | 8.7 | 0.00 | 0.00 | 0.00 | 40 | 1006.8 |
| 20260504214538 | 73 | 203 | 4.3 | 0.0 | 0.00 | 0.00 | 0.00 | 39 | 1006.8 |
| 20260504214410 | 73 | 177 | 5.2 | 10.4 | 0.00 | 0.00 | 0.00 | 39 | 1006.8 |
| 20260504213410 | 74 | 220 | 4.3 | 9.6 | 0.00 | 0.00 | 0.00 | 39 | 1006.8 |
| 20260504213058 | 73 | 211 | 3.5 | 0.0 | 0.00 | 0.00 | 0.00 | 39 | 1006.8 |
| 20260504212345 | 74 | 203 | 3.5 | 8.7 | 0.00 | 0.00 | 0.00 | 38 | 1006.8 |
| 20260504211520 | 74 | 248 | 4.3 | 0.0 | 0.00 | 0.00 | 0.00 | 39 | 1006.7 |
| 20260504211403 | 74 | 184 | 4.3 | 11.3 | 0.00 | 0.00 | 0.00 | 37 | 1006.8 |
| 20260504210353 | 74 | 177 | 4.3 | 9.6 | 0.00 | 0.00 | 0.00 | 38 | 1006.7 |
| 20260504210106 | 74 | 200 | 4.3 | 0.0 | 0.00 | 0.00 | 0.00 | 38 | 1006.7 |
| 20260504205348 | 74 | 204 | 4.3 | 9.6 | 0.00 | 0.00 | 0.00 | 38 | 1006.7 |
| 20260504204625 | 74 | 180 | 5.2 | 0.0 | 0.00 | 0.00 | 0.00 | 38 | 1006.7 |
| 20260504204346 | 74 | 217 | 5.2 | 11.3 | 0.00 | 0.00 | 0.00 | 38 | 1006.7 |
| 20260504203339 | 74 | 192 | 5.2 | 11.3 | 0.00 | 0.00 | 0.00 | 38 | 1006.8 |
| 20260504203047 | 74 | 170 | 3.5 | 0.0 | 0.00 | 0.00 | 0.00 | 37 | 1006.8 |
| 20260504202348 | 74 | 215 | 4.3 | 10.4 | 0.00 | 0.00 | 0.00 | 37 | 1006.9 |
| 20260504201514 | 74 | 213 | 4.3 | 0.0 | 0.00 | 0.00 | 0.00 | 38 | 1006.9 |
| 20260504201345 | 74 | 207 | 4.3 | 11.3 | 0.00 | 0.00 | 0.00 | 36 | 1006.9 |
| 20260504200339 | 74 | 174 | 2.6 | 9.6 | 0.00 | 0.00 | 0.00 | 36 | 1007.1 |
| 20260504200015 | 74 | 198 | 3.5 | 0.0 | 0.00 | 0.00 | 0.00 | 36 | 1007.0 |
| 20260504195352 | 74 | 278 | 4.3 | 8.7 | 0.00 | 0.00 | 0.00 | 37 | 1007.2 |
| 20260504194556 | 74 | 212 | 4.3 | 0.0 | 0.00 | 0.00 | 0.00 | 37 | 1007.2 |
| 20260504194349 | 74 | 191 | 5.2 | 9.6 | 0.00 | 0.00 | 0.00 | 37 | 1007.2 |
| 20260504193402 | 74 | 191 | 6.1 | 13.0 | 0.00 | 0.00 | 0.00 | 37 | 1007.3 |
| 20260504193032 | 74 | 175 | 4.3 | 0.0 | 0.00 | 0.00 | 0.00 | 36 | 1007.3 |
| 20260504192358 | 74 | 168 | 4.3 | 9.6 | 0.00 | 0.00 | 0.00 | 36 | 1007.6 |
| 20260504191545 | 73 | 196 | 3.5 | 0.0 | 0.00 | 0.00 | 0.00 | 37 | 1007.6 |
| 20260504191356 | 73 | 196 | 2.6 | 7.8 | 0.00 | 0.00 | 0.00 | 38 | 1007.6 |
| 20260504190350 | 73 | 170 | 2.6 | 12.2 | 0.00 | 0.00 | 0.00 | 38 | 1007.8 |
| 20260504190050 | 72 | 246 | 2.6 | 0.0 | 0.00 | 0.00 | 0.00 | 38 | 1007.8 |
| 20260504185343 | 73 | 191 | 2.6 | 7.8 | 0.00 | 0.00 | 0.00 | 38 | 1008.1 |
| 20260504184507 | 72 | 189 | 2.6 | 0.0 | 0.00 | 0.00 | 0.00 | 38 | 1008.0 |
| 20260504184341 | 72 | 308 | 2.6 | 9.6 | 0.00 | 0.00 | 0.00 | 37 | 1008.0 |
| 20260504183404 | 72 | 209 | 1.7 | 7.8 | 0.00 | 0.00 | 0.00 | 37 | 1008.3 |
| 20260504183058 | 71 | 229 | 3.5 | 0.0 | 0.00 | 0.00 | 0.00 | 37 | 1008.3 |
| 20260504182408 | 72 | 151 | 4.3 | 11.3 | 0.00 | 0.00 | 0.00 | 38 | 1008.5 |
| 20260504181504 | 71 | 206 | 3.5 | 0.0 | 0.00 | 0.00 | 0.00 | 38 | 1008.5 |
| 20260504181348 | 72 | 304 | 1.7 | 11.3 | 0.00 | 0.00 | 0.00 | 38 | 1008.5 |
| 20260504180343 | 72 | 187 | 6.1 | 10.4 | 0.00 | 0.00 | 0.00 | 39 | 1008.8 |
| 20260504180103 | 71 | 211 | 3.5 | 0.0 | 0.00 | 0.00 | 0.00 | 37 | 1008.8 |
| 20260504175406 | 72 | 175 | 5.2 | 8.7 | 0.00 | 0.00 | 0.00 | 37 | 1008.9 |
| 20260504174509 | 71 | 152 | 2.6 | 0.0 | 0.00 | 0.00 | 0.00 | 39 | 1008.8 |
| 20260504174405 | 71 | 175 | 2.6 | 6.1 | 0.00 | 0.00 | 0.00 | 38 | 1008.9 |
| 20260504173402 | 71 | 208 | 4.3 | 9.6 | 0.00 | 0.00 | 0.00 | 37 | 1008.9 |
| 20260504173037 | 71 | 191 | 4.3 | 0.0 | 0.00 | 0.00 | 0.00 | 39 | 1008.9 |
| 20260504172342 | 70 | 192 | 2.6 | 6.1 | 0.00 | 0.00 | 0.00 | 41 | 1009.2 |
| 20260504171520 | 69 | 282 | 3.5 | 0.0 | 0.00 | 0.00 | 0.00 | 43 | 1009.2 |
| 20260504171341 | 69 | 194 | 3.5 | 12.2 | 0.00 | 0.00 | 0.00 | 42 | 1009.2 |
| 20260504170339 | 69 | 304 | 2.6 | 8.7 | 0.00 | 0.00 | 0.00 | 38 | 1009.4 |
| 20260504160346 | 68 | 179 | 1.7 | 5.2 | 0.00 | 0.00 | 0.00 | 42 | 1010.0 |
| 20260504150354 | 65 | 244 | 2.6 | 7.8 | 0.00 | 0.00 | 0.00 | 53 | 1010.4 |
| 20260504140350 | 62 | 206 | 5.2 | 10.4 | 0.00 | 0.00 | 0.00 | 63 | 1010.5 |
| 20260504130350 | 59 | 181 | 7.8 | 11.3 | 0.00 | 0.00 | 0.00 | 65 | 1011.1 |
| 20260504110347 | 47 | 186 | 1.7 | 2.6 | 0.00 | 0.00 | 0.00 | 87 | 1011.7 |
| 20260504100358 | 45 | 188 | 0.9 | 2.6 | 0.00 | 0.00 | 0.00 | 83 | 1011.9 |
| 20260504081555 | 47 | 182 | 1.7 | 0.0 | 0.00 | 0.00 | 0.00 | 73 | 1011.8 |
| 20260504081354 | 47 | 182 | 1.7 | 4.3 | 0.00 | 0.00 | 0.00 | 73 | 1011.8 |
| 20260504080350 | 47 | 189 | 2.6 | 4.3 | 0.00 | 0.00 | 0.00 | 72 | 1011.7 |
| 20260504070406 | 47 | 184 | 2.6 | 4.3 | 0.00 | 0.00 | 0.00 | 71 | 1011.4 |